AUA2AY LOWG-LGKO

Flight info

Callsign AUA2AY
Flight time N/A
Altitude 39000
Route ROPAG DCT RATGO DCT OBUTI DCT RASIN DCT OLOTA DCT RUGAS DCT DIKNI DCT GIKAS DCT LUPIS DCT MOCNA DCT KOPAR
Aircraft A20N/M-SDE2E3FGHIRWXY/LB1

Departure

Time 2026-04-29 13:22
Airport Graz Airport (LOWG)

Arrival

Time N/A
Airport Kos International Airport "Ippokratis" (LGKO)
Time Latitude Longitude Altitude Speed Heading
2026-04-29 13:20 47.00173 15.43670 1100 ft 0 kts 169°
2026-04-29 13:21 47.00123 15.43684 1101 ft 30 kts 169°
2026-04-29 13:21 46.99598 15.43831 1107 ft 119 kts 169°
2026-04-29 13:21 46.98568 15.44103 1266 ft 169 kts 169°
2026-04-29 13:22 46.97408 15.44405 2117 ft 172 kts 168°
2026-04-29 13:22 46.96680 15.44588 2647 ft 178 kts 169°
2026-04-29 13:22 46.96051 15.44744 3060 ft 185 kts 169°
2026-04-29 13:22 46.94743 15.45058 3901 ft 197 kts 165°
2026-04-29 13:23 46.93445 15.45946 4671 ft 218 kts 140°
2026-04-29 13:23 46.92485 15.47709 5513 ft 237 kts 111°
2026-04-29 13:23 46.92285 15.50160 6455 ft 254 kts 76°
2026-04-29 13:23 46.93237 15.52412 7211 ft 279 kts 39°
2026-04-29 13:24 46.95040 15.53850 7569 ft 313 kts 22°
2026-04-29 13:24 46.97062 15.55178 8693 ft 316 kts 25°
2026-04-29 13:24 46.98952 15.56683 10454 ft 302 kts 28°
2026-04-29 13:24 47.00764 15.58329 11547 ft 315 kts 30°
2026-04-29 13:25 47.02649 15.60195 12199 ft 335 kts 32°
2026-04-29 13:25 47.06517 15.64256 14308 ft 347 kts 33°
2026-04-29 13:25 47.08453 15.66428 15225 ft 356 kts 40°
2026-04-29 13:26 47.09971 15.69317 16123 ft 370 kts 58°
2026-04-29 13:26 47.10818 15.72943 16988 ft 385 kts 78°
2026-04-29 13:26 47.10927 15.74445 17307 ft 390 kts 85°
2026-04-29 13:26 47.10885 15.76375 17715 ft 396 kts 95°
2026-04-29 13:27 47.10166 15.80323 18537 ft 407 kts 113°
2026-04-29 13:27 47.08656 15.83842 19275 ft 413 kts 132°
2026-04-29 13:27 47.06490 15.86606 20042 ft 414 kts 151°
2026-04-29 13:27 47.03889 15.88344 20824 ft 410 kts 169°
2026-04-29 13:28 47.01092 15.88990 21640 ft 406 kts 182°
2026-04-29 13:28 46.98256 15.89241 22475 ft 410 kts 182°
2026-04-29 13:28 46.95397 15.89677 23309 ft 416 kts 179°
2026-04-29 13:28 46.92521 15.90384 24051 ft 423 kts 175°
2026-04-29 13:29 46.89620 15.91289 24666 ft 429 kts 174°
2026-04-29 13:29 46.86745 15.92284 25350 ft 432 kts 173°
2026-04-29 13:29 46.83809 15.93334 25933 ft 438 kts 173°
2026-04-29 13:29 46.80826 15.94408 26479 ft 443 kts 173°
2026-04-29 13:30 46.77821 15.95485 27085 ft 447 kts 173°
2026-04-29 13:30 46.74788 15.96568 27631 ft 451 kts 173°
2026-04-29 13:30 46.71717 15.97659 28173 ft 456 kts 173°
2026-04-29 13:30 46.68625 15.98754 28690 ft 460 kts 173°
2026-04-29 13:31 46.65496 15.99857 29060 ft 466 kts 173°
2026-04-29 13:31 46.62331 16.00973 29561 ft 470 kts 173°
2026-04-29 13:31 46.59143 16.02103 30042 ft 474 kts 172°
2026-04-29 13:31 46.55990 16.03725 30480 ft 488 kts 160°
2026-04-29 13:32 46.53025 16.06252 30899 ft 499 kts 148°
2026-04-29 13:32 46.50381 16.09595 31315 ft 508 kts 139°
2026-04-29 13:32 46.47890 16.13146 31802 ft 510 kts 139°
2026-04-29 13:32 46.45364 16.16753 32348 ft 509 kts 139°
2026-04-29 13:33 46.42828 16.20355 32867 ft 509 kts 139°
2026-04-29 13:33 46.40294 16.23937 33450 ft 508 kts 139°
2026-04-29 13:33 46.37762 16.27504 33984 ft 508 kts 140°
2026-04-29 13:33 46.35226 16.31064 34459 ft 508 kts 140°
2026-04-29 13:34 46.32691 16.34615 34935 ft 506 kts 140°
2026-04-29 13:34 46.30162 16.38152 35403 ft 505 kts 140°
2026-04-29 13:34 46.27639 16.41674 35856 ft 504 kts 139°
2026-04-29 13:34 46.25122 16.45186 36295 ft 503 kts 139°
2026-04-29 13:35 46.23452 16.47513 36594 ft 500 kts 139°
2026-04-29 13:35 46.20100 16.52178 37043 ft 501 kts 139°
2026-04-29 13:35 46.17620 16.55623 37444 ft 500 kts 139°
2026-04-29 13:35 46.15117 16.59096 37843 ft 499 kts 139°
2026-04-29 13:36 46.12619 16.62557 38280 ft 498 kts 139°
2026-04-29 13:36 46.12020 16.63387 38348 ft 498 kts 139°
2026-04-29 13:36 46.10833 16.65029 38537 ft 497 kts 139°
2026-04-29 13:36 46.08339 16.68476 38919 ft 497 kts 139°
2026-04-29 13:37 46.05853 16.71938 39163 ft 496 kts 139°
2026-04-29 13:37 46.03381 16.75404 39233 ft 495 kts 138°
2026-04-29 13:37 45.98455 16.82323 39240 ft 494 kts 138°
2026-04-29 13:38 45.93521 16.89236 39236 ft 496 kts 139°
2026-04-29 13:38 45.88606 16.96101 39238 ft 495 kts 139°
2026-04-29 13:39 45.83658 17.02988 39234 ft 495 kts 139°
2026-04-29 13:39 45.78708 17.09852 39234 ft 495 kts 139°
2026-04-29 13:40 45.73788 17.16657 39236 ft 496 kts 139°
2026-04-29 13:40 45.68821 17.23511 39230 ft 496 kts 139°
2026-04-29 13:41 45.63845 17.30358 39209 ft 495 kts 139°
2026-04-29 13:41 45.58866 17.37190 39227 ft 500 kts 139°
2026-04-29 13:42 45.53760 17.44175 39229 ft 514 kts 139°
2026-04-29 13:42 45.48574 17.51257 39228 ft 516 kts 139°
2026-04-29 13:43 45.43421 17.58277 39225 ft 515 kts 139°
2026-04-29 13:43 45.38224 17.65335 39230 ft 516 kts 139°
2026-04-29 13:44 45.33028 17.72371 39226 ft 517 kts 139°
2026-04-29 13:44 45.27804 17.79427 39225 ft 517 kts 139°
2026-04-29 13:45 45.22616 17.86416 39225 ft 517 kts 139°
2026-04-29 13:45 45.17391 17.93437 39225 ft 517 kts 139°
2026-04-29 13:46 45.12158 18.00448 39213 ft 516 kts 139°
2026-04-29 13:46 45.06938 18.07426 39225 ft 516 kts 140°
2026-04-29 13:47 45.01742 18.14351 39222 ft 516 kts 140°
2026-04-29 13:47 44.96513 18.21303 39216 ft 516 kts 140°
2026-04-29 13:48 44.91277 18.28245 39212 ft 516 kts 140°
2026-04-29 13:48 44.86045 18.35165 39204 ft 515 kts 140°
2026-04-29 13:49 44.80809 18.42071 39204 ft 515 kts 140°
2026-04-29 13:49 44.75568 18.48965 39205 ft 515 kts 140°
2026-04-29 13:50 44.70348 18.55814 39192 ft 517 kts 140°
2026-04-29 13:50 44.65091 18.62695 39189 ft 516 kts 140°
2026-04-29 13:51 44.59834 18.69559 39180 ft 515 kts 140°
2026-04-29 13:51 44.54582 18.76398 39184 ft 515 kts 140°
2026-04-29 13:52 44.49317 18.83233 39176 ft 516 kts 140°
2026-04-29 13:52 44.44049 18.90057 39176 ft 515 kts 140°
2026-04-29 13:53 44.38781 18.96862 39165 ft 515 kts 140°
2026-04-29 13:53 44.33541 19.03616 39162 ft 515 kts 141°
2026-04-29 13:54 44.28267 19.10394 39154 ft 515 kts 141°
2026-04-29 13:54 44.22993 19.17156 39151 ft 515 kts 141°
2026-04-29 13:55 44.17709 19.23913 39136 ft 515 kts 141°
2026-04-29 13:55 44.12432 19.30645 39136 ft 513 kts 141°
2026-04-29 13:56 44.07182 19.37324 39122 ft 513 kts 141°
2026-04-29 13:56 44.01885 19.44045 39120 ft 516 kts 141°
2026-04-29 13:57 43.96604 19.50734 39111 ft 513 kts 141°
2026-04-29 13:57 43.91311 19.57418 39111 ft 515 kts 141°
2026-04-29 13:58 43.86011 19.64093 39075 ft 514 kts 141°
2026-04-29 13:58 43.80748 19.70706 39086 ft 513 kts 141°
2026-04-29 13:59 43.75453 19.77343 39106 ft 513 kts 141°
2026-04-29 13:59 43.70133 19.83993 39089 ft 515 kts 141°
2026-04-29 14:00 43.64806 19.90637 39089 ft 516 kts 141°
2026-04-29 14:00 43.59478 19.97263 39083 ft 513 kts 141°
2026-04-29 14:01 43.54162 20.03860 39093 ft 514 kts 141°
2026-04-29 14:01 43.48837 20.10452 39085 ft 514 kts 141°
2026-04-29 14:02 43.43549 20.16982 39078 ft 514 kts 141°
2026-04-29 14:02 43.38214 20.23553 39087 ft 514 kts 141°
2026-04-29 14:03 43.32887 20.30098 39077 ft 511 kts 141°
2026-04-29 14:03 43.27579 20.36604 39080 ft 511 kts 141°
2026-04-29 14:04 43.22266 20.43101 39083 ft 511 kts 141°
2026-04-29 14:04 43.16988 20.49538 39078 ft 511 kts 141°
2026-04-29 14:05 43.11668 20.56012 39083 ft 511 kts 141°
2026-04-29 14:05 43.06342 20.62476 39077 ft 511 kts 141°
2026-04-29 14:06 43.01012 20.68931 39077 ft 512 kts 141°
2026-04-29 14:06 42.95679 20.75368 39083 ft 511 kts 141°
2026-04-29 14:07 42.90333 20.81811 39089 ft 512 kts 141°
2026-04-29 14:07 42.84995 20.88230 39077 ft 511 kts 141°
2026-04-29 14:08 42.79655 20.94634 39079 ft 511 kts 141°
2026-04-29 14:08 42.74348 21.00984 39074 ft 511 kts 141°
2026-04-29 14:09 42.68999 21.07369 39074 ft 511 kts 141°
2026-04-29 14:09 42.63649 21.13740 39075 ft 511 kts 141°
2026-04-29 14:10 42.58304 21.20089 39073 ft 509 kts 141°
2026-04-29 14:10 42.52968 21.26414 39071 ft 510 kts 141°
2026-04-29 14:11 42.47618 21.32739 39059 ft 510 kts 142°
2026-04-29 14:11 42.42267 21.39051 39052 ft 510 kts 142°
2026-04-29 14:12 42.36943 21.45319 39030 ft 510 kts 142°
2026-04-29 14:12 42.31612 21.51587 39018 ft 507 kts 142°
2026-04-29 14:13 42.26281 21.57840 39014 ft 508 kts 142°
2026-04-29 14:13 42.20971 21.64142 39007 ft 509 kts 139°
2026-04-29 14:14 42.15943 21.70889 39002 ft 510 kts 137°
2026-04-29 14:14 42.10972 21.77605 38982 ft 509 kts 137°
2026-04-29 14:15 42.06082 21.84482 38993 ft 509 kts 135°
2026-04-29 14:15 42.01000 21.91121 38995 ft 508 kts 139°
2026-04-29 14:16 41.95880 21.97608 38994 ft 509 kts 139°
2026-04-29 14:16 41.90765 22.04262 38996 ft 509 kts 138°
2026-04-29 14:17 41.85731 22.10859 39001 ft 509 kts 138°
2026-04-29 14:17 41.80673 22.17475 38998 ft 508 kts 138°
2026-04-29 14:18 41.75597 22.24098 39009 ft 508 kts 138°
2026-04-29 14:18 41.70524 22.30700 39007 ft 508 kts 138°
2026-04-29 14:19 41.65451 22.37286 39016 ft 508 kts 138°
2026-04-29 14:19 41.60408 22.43818 39018 ft 508 kts 138°
2026-04-29 14:20 41.55338 22.50370 39020 ft 504 kts 138°
2026-04-29 14:20 41.50288 22.56881 39023 ft 505 kts 138°
2026-04-29 14:21 41.45228 22.63390 39031 ft 505 kts 138°
2026-04-29 14:21 41.40166 22.69888 39031 ft 505 kts 138°
2026-04-29 14:22 41.35105 22.76367 39037 ft 505 kts 138°
2026-04-29 14:22 41.30673 22.81361 39026 ft 499 kts 147°
2026-04-29 14:23 41.25046 22.86797 39036 ft 500 kts 147°
2026-04-29 14:23 41.18517 22.93121 39038 ft 500 kts 147°
2026-04-29 14:24 41.12896 22.98554 39040 ft 500 kts 147°
2026-04-29 14:24 41.08214 23.03068 39041 ft 500 kts 147°
2026-04-29 14:25 41.02590 23.08480 39039 ft 498 kts 147°
2026-04-29 14:25 40.96971 23.13874 39040 ft 500 kts 147°
2026-04-29 14:26 40.91340 23.19269 39042 ft 499 kts 147°
2026-04-29 14:26 40.85803 23.24840 39046 ft 501 kts 143°
2026-04-29 14:27 40.80431 23.30714 39045 ft 501 kts 143°
2026-04-29 14:28 40.72381 23.39376 39053 ft 500 kts 143°
2026-04-29 14:28 40.66969 23.45135 39054 ft 499 kts 143°
2026-04-29 14:29 40.61557 23.50880 39062 ft 499 kts 143°
2026-04-29 14:29 40.56141 23.56618 39061 ft 499 kts 143°
2026-04-29 14:30 40.50737 23.62329 39068 ft 498 kts 143°
2026-04-29 14:30 40.45328 23.68036 39070 ft 498 kts 143°
2026-04-29 14:31 40.39916 23.73733 39070 ft 498 kts 143°
2026-04-29 14:31 40.34530 23.79391 39069 ft 499 kts 143°
2026-04-29 14:32 40.29116 23.85066 39070 ft 498 kts 143°
2026-04-29 14:32 40.23692 23.90739 39070 ft 498 kts 143°
2026-04-29 14:33 40.18272 23.96397 39071 ft 498 kts 143°
2026-04-29 14:33 40.12845 24.02050 39074 ft 498 kts 144°
2026-04-29 14:34 40.07399 24.07710 39077 ft 499 kts 144°
2026-04-29 14:34 40.02003 24.13307 39075 ft 499 kts 144°
2026-04-29 14:35 39.96581 24.18920 39075 ft 497 kts 144°
2026-04-29 14:35 39.91158 24.24521 39075 ft 497 kts 144°
2026-04-29 14:36 39.85721 24.30125 39075 ft 497 kts 144°
2026-04-29 14:36 39.80291 24.35711 39075 ft 497 kts 144°
2026-04-29 14:37 39.74859 24.41287 39058 ft 497 kts 144°
2026-04-29 14:37 39.69460 24.46819 39072 ft 497 kts 144°
2026-04-29 14:38 39.64025 24.52374 39075 ft 497 kts 144°
2026-04-29 14:38 39.58591 24.57918 39072 ft 497 kts 144°
2026-04-29 14:39 39.53157 24.63450 39072 ft 497 kts 144°
2026-04-29 14:39 39.47721 24.68976 39058 ft 496 kts 144°
2026-04-29 14:40 39.42279 24.74487 39070 ft 497 kts 144°
2026-04-29 14:40 39.36834 24.79991 39066 ft 497 kts 144°
2026-04-29 14:41 39.31408 24.85466 39066 ft 497 kts 144°
2026-04-29 14:41 39.25952 24.90960 39073 ft 497 kts 144°
2026-04-29 14:42 39.20493 24.96447 39065 ft 497 kts 144°
2026-04-29 14:42 39.15027 25.01931 39067 ft 498 kts 144°
2026-04-29 14:43 39.09591 25.07377 39067 ft 498 kts 144°
2026-04-29 14:43 39.04111 25.12856 39070 ft 498 kts 144°
2026-04-29 14:44 38.98636 25.18317 39070 ft 498 kts 144°
2026-04-29 14:44 38.93153 25.23775 39064 ft 498 kts 144°
2026-04-29 14:45 38.87665 25.29229 39065 ft 499 kts 144°
2026-04-29 14:45 38.82175 25.34673 39065 ft 498 kts 144°
2026-04-29 14:46 38.76728 25.40064 39065 ft 498 kts 145°
2026-04-29 14:46 38.71239 25.45484 39064 ft 498 kts 145°
2026-04-29 14:47 38.65751 25.50893 39051 ft 498 kts 145°
2026-04-29 14:47 38.60261 25.56294 39059 ft 498 kts 145°
2026-04-29 14:48 38.54766 25.61690 39061 ft 497 kts 145°
2026-04-29 14:48 38.49274 25.67070 39059 ft 497 kts 145°
2026-04-29 14:49 38.43641 25.72146 39056 ft 494 kts 153°
2026-04-29 14:49 38.37531 25.75992 39053 ft 493 kts 158°
2026-04-29 14:50 38.31342 25.79786 39051 ft 493 kts 157°
2026-04-29 14:50 38.25162 25.83578 39051 ft 493 kts 157°
2026-04-29 14:51 38.18977 25.87367 39052 ft 493 kts 158°
2026-04-29 14:51 38.12836 25.91120 39046 ft 492 kts 158°
2026-04-29 14:52 38.06658 25.94889 39048 ft 493 kts 158°
2026-04-29 14:52 38.00476 25.98653 38756 ft 490 kts 158°
2026-04-29 14:52 37.97401 26.00523 38492 ft 487 kts 158°
2026-04-29 14:53 37.94360 26.02371 38204 ft 484 kts 158°
2026-04-29 14:53 37.91329 26.04211 37804 ft 481 kts 157°
2026-04-29 14:53 37.88352 26.06015 37189 ft 478 kts 157°
2026-04-29 14:53 37.85320 26.07852 36436 ft 476 kts 157°
2026-04-29 14:54 37.82372 26.09635 35728 ft 474 kts 157°
2026-04-29 14:54 37.79400 26.11431 34990 ft 472 kts 156°
2026-04-29 14:54 37.76431 26.13223 34247 ft 471 kts 156°
2026-04-29 14:54 37.73477 26.15003 33413 ft 470 kts 156°
2026-04-29 14:55 37.70534 26.16778 32577 ft 468 kts 156°
2026-04-29 14:55 37.67598 26.18546 31766 ft 465 kts 156°
2026-04-29 14:55 37.64684 26.20300 30978 ft 464 kts 156°
2026-04-29 14:55 37.61764 26.22055 30252 ft 465 kts 156°
2026-04-29 14:56 37.58846 26.23809 29482 ft 462 kts 156°
2026-04-29 14:56 37.55960 26.25543 28694 ft 457 kts 156°
2026-04-29 14:56 37.53099 26.27260 27884 ft 452 kts 156°
2026-04-29 14:56 37.50269 26.28957 27116 ft 448 kts 156°
2026-04-29 14:57 37.47465 26.30637 26370 ft 443 kts 156°
2026-04-29 14:57 37.44733 26.32271 25665 ft 438 kts 156°
2026-04-29 14:57 37.41994 26.33909 24976 ft 433 kts 156°
2026-04-29 14:57 37.39285 26.35527 24310 ft 428 kts 156°
2026-04-29 14:58 37.36603 26.37127 23666 ft 423 kts 156°
2026-04-29 14:58 37.33957 26.38706 22917 ft 419 kts 156°
2026-04-29 14:58 37.31340 26.40266 22191 ft 414 kts 156°
2026-04-29 14:58 37.28754 26.41806 21495 ft 409 kts 156°
2026-04-29 14:59 37.26200 26.43327 20815 ft 404 kts 156°
2026-04-29 14:59 37.23674 26.44829 20168 ft 399 kts 156°
2026-04-29 14:59 37.21180 26.46311 19529 ft 395 kts 156°
2026-04-29 14:59 37.18700 26.47783 18916 ft 394 kts 155°
2026-04-29 15:00 37.16232 26.49247 18327 ft 389 kts 155°
2026-04-29 15:00 37.13831 26.50672 17792 ft 386 kts 156°
2026-04-29 15:00 37.11395 26.52116 17265 ft 387 kts 156°
2026-04-29 15:00 37.08976 26.53549 16747 ft 382 kts 156°
2026-04-29 15:01 37.06572 26.54972 16222 ft 380 kts 156°
2026-04-29 15:01 37.04183 26.56384 15678 ft 377 kts 156°
2026-04-29 15:01 37.01818 26.57784 15358 ft 377 kts 156°
2026-04-29 15:01 36.99430 26.59195 14791 ft 381 kts 156°
2026-04-29 15:02 36.97056 26.60595 14118 ft 382 kts 156°
2026-04-29 15:02 36.94632 26.62026 13477 ft 378 kts 156°
2026-04-29 15:02 36.92301 26.63398 12849 ft 372 kts 155°
2026-04-29 15:02 36.89978 26.64765 12235 ft 367 kts 155°
2026-04-29 15:03 36.87684 26.66116 11620 ft 362 kts 155°
2026-04-29 15:03 36.85416 26.67451 11033 ft 358 kts 154°
2026-04-29 15:03 36.83282 26.69018 10425 ft 354 kts 143°
2026-04-29 15:03 36.81454 26.71010 10112 ft 341 kts 132°
2026-04-29 15:04 36.79908 26.73156 9970 ft 324 kts 130°
2026-04-29 15:04 36.78433 26.75198 9783 ft 310 kts 130°
2026-04-29 15:04 36.77008 26.77158 9500 ft 301 kts 131°
2026-04-29 15:04 36.75608 26.79085 9106 ft 297 kts 130°
2026-04-29 15:05 36.74225 26.80985 8702 ft 294 kts 130°
2026-04-29 15:05 36.73320 26.82228 8440 ft 292 kts 130°
2026-04-29 15:05 36.71527 26.84693 7918 ft 287 kts 130°
2026-04-29 15:05 36.70190 26.86532 7528 ft 284 kts 128°